Wind_Speed
9 8 6 4 3 2 1 2 2 3 4 6 7 7 7 7 7 7 8 8 8 7 8 7 8 7 7 6 6 6 7 7 6 6 6 6 6 6 5 5 5 4 4 3
10 9 7 6 5 4 3 3 1 3 4 6 8 7 6 6 6 7 7 7 7 7 7 7 7 7 6 6 6 5 6 5 5 5 5 5 6 6 6 5 5 5 5 5
10 9 9 8 6 5 5 5 3 3 5 7 8 7 7 6 7 7 6 7 7 6 6 7 7 6 6 6 5 5 4 4 4 5 5 5 6 6 6 5 6 5 6 6
11 10 10 9 7 6 7 6 7 7 8 9 9 9 6 7 8 8 7 6 6 6 6 6 6 5 6 6 5 5 4 4 4 5 5 5 5 6 6 5 6 6 6 6
11 11 11 10 8 8 8 8 10 10 10 11 11 10 7 7 8 8 7 6 6 6 6 6 6 5 5 5 5 5 5 4 4 5 6 5 5 6 6 6 7 7 7 7
12 12 12 11 10 10 10 11 12 11 12 13 11 11 9 8 8 8 8 7 6 5 6 6 5 5 5 5 5 5 5 5 5 6 6 6 6 7 7 7 7 7 8 8
14 13 13 13 13 12 13 13 13 13 13 13 12 13 10 8 8 9 8 8 7 6 6 6 6 5 5 5 5 6 6 6 6 6 7 7 8 8 8 8 9 9 9 9
15 14 14 14 14 14 15 16 16 15 15 14 13 13 11 9 9 10 10 10 9 7 6 7 8 7 7 6 6 7 8 8 8 8 8 8 9 9 9 10 10 11 10 11
15 14 14 14 14 15 16 17 17 17 17 17 15 13 12 11 11 12 12 11 9 9 9 9 9 9 9 8 8 8 9 9 9 10 10 10 11 11 11 12 12 11 12 12
15 15 15 14 15 15 16 17 19 20 19 19 17 15 14 14 14 13 13 11 10 10 10 10 11 10 10 10 10 10 10 11 12 12 12 12 12 13 13 13 14 14 14 14
16 16 16 17 17 17 18 18 19 21 21 20 19 18 15 15 17 16 15 13 12 12 12 12 11 12 12 12 11 11 11 12 13 13 14 14 14 15 15 16 16 15 14 14
18 18 19 19 19 20 20 20 21 22 21 22 22 20 17 17 17 18 17 16 15 14 14 14 12 13 14 14 14 13 14 14 15 15 15 16 16 16 16 16 16 15 15 15
21 22 21 21 21 22 22 21 21 22 23 23 23 21 19 20 19 19 19 18 17 17 16 16 15 14 16 16 16 16 16 16 16 16 16 16 16 17 16 16 16 16 16 15
23 24 24 24 23 23 23 22 21 22 23 25 24 22 20 20 20 20 20 20 20 20 20 19 18 18 18 18 17 17 17 18 18 17 16 17 18 17 17 17 16 16 16 16
24 24 24 25 25 25 25 23 23 24 24 26 26 25 23 21 21 21 21 22 21 21 20 20 20 20 19 19 19 19 20 19 19 18 17 18 18 18 18 17 17 17 18 17
26 25 25 26 26 27 26 25 25 25 25 25 25 25 24 23 23 23 23 23 23 23 22 23 23 23 23 22 21 20 20 19 19 19 19 19 19 19 20 19 19 19 18 19
28 28 27 27 26 27 27 25 25 25 24 23 24 23 23 23 23 24 24 24 25 26 25 24 25 24 24 24 23 21 21 20 19 20 20 20 20 21 21 21 21 21 21 20
28 29 29 28 28 29 26 26 25 25 26 25 25 25 23 23 24 26 26 26 26 26 26 26 25 25 24 24 23 22 22 21 21 21 22 22 22 21 22 22 22 23 22 22
28 28 28 28 29 28 26 26 25 25 26 26 26 26 25 25 26 27 26 26 25 25 26 27 26 25 25 24 23 23 23 23 22 22 23 24 23 23 23 23 23 23 23 23
27 28 29 29 29 28 25 25 25 26 27 26 26 26 27 27 27 27 27 26 26 26 26 26 26 26 26 25 24 24 25 24 24 24 24 25 26 25 25 24 24 24 24 23
27 28 29 29 29 28 26 26 26 28 27 26 27 26 26 27 27 27 27 27 27 27 26 26 27 27 26 26 26 26 26 27 27 26 26 26 26 26 25 25 25 25 25 24
26 28 28 28 28 28 27 26 27 27 27 27 27 28 27 27 28 29 29 29 28 28 28 28 28 29 28 28 28 27 28 28 28 28 28 27 26 26 26 25 25 25 25 25
26 26 26 26 26 26 27 27 26 27 28 27 28 28 29 28 28 28 29 30 29 29 29 30 30 30 31 30 30 30 29 29 29 28 28 27 27 27 27 27 27 26 26 26
26 26 25 25 25 26 26 26 27 27 28 28 29 29 30 30 29 29 30 29 29 29 30 30 30 31 31 31 31 31 30 30 30 29 29 29 29 28 28 28 27 27 27 27
25 26 26 26 25 25 27 27 28 28 28 28 29 29 29 30 29 29 29 29 28 28 30 30 30 30 30 30 31 32 32 31 31 31 30 29 29 29 29 29 29 28 27 27
25 26 26 25 25 25 25 26 26 27 27 28 28 28 29 29 29 29 30 30 30 29 29 30 31 31 31 31 32 33 32 32 31 30 30 30 30 29 29 28 28 28 28 28
Wind_Direction
203 199 195 195 183 177 205 264 319 6 4 348 340 345 355 3 6 3 6 9 12 18 21 21 20 23 27 31 34 36 38 41 45 49 49 47 41 38 32 22 23 26 21 12
207 198 192 194 186 199 237 259 321 341 326 323 330 337 342 346 346 348 359 359 3 13 19 19 15 15 17 22 27 28 28 31 34 37 37 34 29 26 21 14 13 9 4 357
205 198 203 203 194 214 234 248 253 292 301 306 314 319 318 331 335 342 344 347 346 359 9 13 6 2 3 7 11 11 13 21 22 22 18 16 16 9 6 2 0 358 357 356
209 201 210 218 216 222 234 244 259 266 279 291 296 302 308 318 328 333 329 324 332 349 357 1 355 346 349 352 350 350 356 5 1 358 358 354 356 358 358 353 348 344 347 347
213 209 214 222 223 233 235 244 258 269 277 278 282 286 296 298 311 320 328 330 329 341 349 355 352 343 339 338 338 341 343 344 343 341 344 346 342 341 341 339 335 334 335 338
219 216 216 218 223 234 236 241 249 261 270 270 276 274 283 289 302 309 319 333 336 340 341 339 339 332 329 330 329 330 329 326 330 334 333 333 332 328 326 325 323 318 319 321
225 222 219 220 226 230 236 244 251 257 265 268 272 272 277 285 289 293 302 306 324 325 325 322 319 315 314 320 318 316 314 310 312 317 320 322 319 318 315 311 308 305 308 311
231 224 223 226 234 236 239 248 256 261 266 268 269 271 272 278 284 287 294 302 315 318 303 303 303 298 294 301 303 304 302 300 301 305 308 310 309 309 311 308 304 299 301 302
232 227 223 228 234 240 241 248 258 263 266 269 270 276 275 279 287 288 290 296 298 297 289 292 293 292 292 294 291 296 295 296 298 300 302 303 305 305 306 304 304 300 296 297
236 230 226 231 238 242 246 251 254 258 263 266 266 268 276 280 280 280 283 284 285 282 283 290 291 288 286 289 291 292 291 294 295 295 296 299 301 301 301 300 300 299 297 295
236 235 232 236 240 244 247 252 254 260 265 265 266 266 273 277 277 278 278 281 282 282 281 284 289 287 285 286 289 291 290 291 291 291 291 294 295 297 298 297 297 298 298 298
238 239 239 242 246 249 250 254 259 263 263 264 267 271 274 276 276 275 273 278 277 278 278 279 283 285 288 289 290 290 289 289 288 289 289 291 291 292 294 296 297 296 297 296
237 240 242 244 246 251 254 255 259 261 263 265 267 271 270 271 272 275 275 282 280 279 279 278 280 280 285 286 286 288 288 290 287 284 285 288 289 289 290 292 294 291 290 290
238 242 245 247 248 251 254 256 258 260 264 266 266 267 265 266 269 275 278 278 280 281 281 280 279 279 283 282 283 286 286 287 284 280 280 283 286 286 287 288 287 287 288 288
242 244 247 248 248 250 252 254 256 259 263 266 264 264 260 262 268 271 275 275 276 278 279 281 283 281 281 281 282 285 287 287 285 281 279 281 285 285 285 285 284 286 286 287
246 247 247 247 247 249 252 254 256 258 263 267 266 263 265 266 271 275 276 275 275 275 279 281 280 278 279 279 282 284 283 282 282 285 285 284 284 284 284 285 284 284 284 286
248 250 250 250 251 250 250 253 255 257 260 265 268 267 266 265 269 274 274 277 276 275 277 280 280 278 278 282 283 280 283 285 284 286 287 284 282 283 282 282 282 282 284 287
248 249 252 253 252 251 250 251 253 254 258 261 265 267 267 266 266 269 271 277 278 279 278 279 281 280 280 282 284 283 284 285 285 285 284 283 281 280 280 280 282 282 282 285
251 251 252 253 253 253 249 249 252 254 257 261 264 266 266 270 269 269 271 275 277 277 279 281 281 280 280 280 281 281 282 283 283 283 283 282 279 278 278 279 280 280 281 282
249 251 252 253 255 254 251 250 251 255 259 263 265 266 268 269 271 271 270 272 274 275 276 277 278 278 276 277 279 280 281 281 282 282 282 281 280 278 276 275 276 278 279 282
248 250 251 253 256 257 255 253 255 256 259 262 265 267 267 268 270 271 271 271 272 274 276 278 277 277 276 276 277 278 278 279 279 281 281 282 280 279 276 274 275 277 278 280
249 250 252 254 256 259 258 256 257 259 260 264 267 267 267 269 270 272 272 272 271 274 276 278 277 276 275 275 275 276 277 278 278 279 280 280 279 278 276 275 276 277 279 280
250 251 254 256 259 260 259 258 258 260 262 264 265 268 272 271 271 274 273 272 272 274 275 276 275 275 276 275 275 276 277 278 278 278 277 277 278 277 276 275 277 277 278 281
250 253 256 257 258 258 257 259 260 263 265 267 268 270 270 272 273 273 271 272 271 271 272 274 275 275 275 275 275 275 276 276 276 275 276 276 276 275 277 277 278 277 278 280
250 253 256 258 260 260 260 261 261 263 265 267 270 270 270 273 274 273 273 273 274 274 273 272 273 274 275 276 276 275 274 275 274 274 275 275 273 273 275 276 277 278 277 279
252 254 255 259 261 262 263 263 264 266 269 270 271 271 272 274 276 274 273 272 274 275 275 273 273 274 276 276 278 276 275 274 273 273 272 272 272 271 271 273 275 277 278 280
Height
5915 5917 5917 5918 5918 5919 5919 5919 5919 5919 5918 5918 5916 5916 5915 5914 5914 5913 5912 5911 5911 5910 5909 5908 5907 5905 5904 5904 5903 5902 5901 5900 5899 5898 5897 5896 5895 5895 5894 5893 5892 5892 5891 5890
5914 5915 5916 5916 5917 5917 5918 5918 5918 5918 5918 5917 5916 5915 5914 5913 5913 5912 5912 5911 5910 5910 5909 5908 5906 5905 5904 5904 5903 5902 5901 5900 5899 5899 5898 5897 5896 5895 5894 5893 5892 5892 5891 5890
5912 5914 5914 5914 5915 5915 5916 5917 5917 5917 5916 5916 5915 5914 5913 5913 5912 5911 5911 5910 5910 5909 5908 5907 5906 5905 5904 5903 5903 5902 5901 5900 5900 5899 5898 5897 5896 5895 5894 5893 5892 5891 5890 5889
5909 5911 5911 5912 5913 5914 5914 5915 5915 5915 5915 5914 5915 5913 5913 5911 5911 5910 5910 5909 5908 5908 5907 5906 5905 5904 5904 5903 5902 5902 5901 5900 5899 5898 5897 5896 5895 5894 5893 5892 5891 5890 5889 5888
5907 5908 5908 5910 5912 5912 5913 5914 5913 5913 5913 5913 5912 5912 5913 5910 5910 5909 5908 5907 5907 5906 5906 5905 5904 5903 5903 5902 5902 5901 5900 5899 5899 5898 5897 5896 5895 5894 5892 5891 5890 5889 5888 5887
5904 5905 5906 5908 5909 5910 5911 5912 5911 5911 5911 5910 5910 5910 5910 5909 5908 5907 5907 5906 5906 5905 5905 5904 5903 5903 5902 5901 5900 5900 5899 5898 5897 5896 5895 5894 5893 5892 5891 5890 5889 5887 5886 5885
5900 5902 5903 5904 5905 5907 5908 5909 5909 5908 5907 5908 5908 5907 5908 5907 5907 5905 5905 5904 5904 5904 5903 5903 5902 5901 5900 5900 5899 5898 5898 5897 5896 5895 5894 5892 5891 5890 5889 5888 5887 5885 5884 5883
5896 5899 5900 5901 5902 5903 5904 5905 5906 5905 5905 5905 5905 5903 5905 5904 5904 5903 5902 5902 5901 5901 5901 5901 5900 5899 5898 5898 5897 5896 5896 5895 5894 5892 5891 5890 5889 5888 5886 5885 5884 5883 5882 5880
5892 5895 5896 5897 5899 5900 5900 5901 5902 5902 5901 5901 5901 5901 5901 5901 5900 5900 5900 5899 5899 5899 5898 5898 5897 5897 5896 5895 5894 5893 5893 5892 5891 5889 5888 5887 5886 5885 5883 5882 5881 5879 5878 5877
5888 5891 5893 5894 5895 5896 5897 5897 5898 5897 5897 5896 5897 5897 5898 5897 5896 5897 5896 5896 5896 5895 5895 5895 5894 5894 5893 5892 5891 5891 5890 5889 5888 5886 5885 5884 5883 5881 5880 5879 5877 5876 5875 5874
5883 5886 5888 5890 5890 5891 5893 5893 5892 5893 5892 5892 5892 5895 5894 5894 5893 5893 5892 5892 5892 5892 5892 5891 5891 5890 5890 5889 5887 5887 5886 5885 5884 5883 5881 5880 5879 5878 5877 5875 5873 5871 5870 5869
5878 5880 5882 5885 5887 5887 5887 5888 5888 5889 5888 5888 5888 5892 5890 5889 5888 5888 5888 5888 5887 5887 5887 5887 5886 5886 5885 5884 5884 5883 5881 5880 5879 5878 5877 5876 5875 5873 5872 5870 5868 5867 5866 5865
5873 5875 5877 5879 5883 5882 5882 5883 5883 5883 5883 5883 5883 5886 5884 5883 5883 5883 5883 5883 5882 5883 5883 5882 5881 5880 5880 5880 5879 5878 5877 5875 5874 5873 5872 5871 5870 5868 5867 5866 5864 5862 5861 5860
5868 5869 5872 5874 5875 5876 5876 5878 5878 5878 5877 5877 5878 5879 5879 5879 5879 5879 5878 5878 5877 5877 5877 5877 5876 5875 5875 5874 5873 5872 5871 5870 5869 5868 5867 5866 5864 5863 5862 5860 5859 5858 5857 5856
5862 5863 5865 5867 5868 5869 5870 5871 5872 5872 5872 5872 5872 5872 5873 5873 5874 5873 5873 5872 5872 5872 5871 5871 5871 5870 5869 5868 5867 5866 5865 5864 5863 5862 5861 5860 5859 5857 5856 5855 5854 5853 5852 5851
5855 5857 5859 5860 5862 5862 5863 5864 5865 5865 5865 5865 5865 5866 5867 5867 5868 5867 5867 5866 5866 5866 5865 5865 5865 5864 5863 5862 5861 5860 5859 5858 5857 5856 5855 5854 5853 5852 5851 5849 5848 5847 5846 5845
5849 5851 5852 5854 5855 5856 5857 5859 5858 5858 5858 5859 5858 5860 5860 5860 5861 5861 5861 5860 5860 5859 5859 5859 5858 5858 5857 5855 5854 5853 5853 5853 5851 5850 5849 5847 5846 5846 5844 5843 5842 5841 5840 5838
5842 5844 5845 5847 5849 5849 5853 5851 5851 5851 5852 5852 5852 5853 5853 5854 5854 5854 5854 5854 5853 5853 5852 5852 5851 5851 5850 5849 5848 5847 5847 5846 5845 5844 5842 5841 5839 5838 5838 5837 5836 5834 5833 5832
5836 5837 5838 5839 5839 5841 5843 5844 5845 5845 5845 5845 5845 5846 5846 5846 5846 5847 5847 5846 5846 5846 5846 5845 5844 5844 5843 5842 5841 5841 5840 5839 5838 5837 5835 5834 5832 5831 5830 5830 5828 5828 5827 5825
5828 5829 5831 5831 5832 5833 5837 5838 5837 5838 5838 5838 5838 5839 5839 5839 5839 5839 5839 5838 5838 5839 5838 5838 5837 5836 5835 5835 5834 5834 5833 5832 5831 5830 5828 5827 5825 5825 5824 5822 5821 5820 5819 5818
5821 5822 5823 5823 5824 5826 5829 5830 5831 5831 5832 5831 5831 5832 5832 5831 5832 5832 5831 5831 5831 5830 5830 5830 5829 5828 5827 5827 5826 5826 5826 5825 5823 5822 5821 5820 5818 5817 5816 5815 5814 5813 5812 5811
5814 5815 5816 5817 5818 5821 5821 5822 5823 5823 5823 5824 5824 5824 5823 5823 5823 5822 5822 5822 5822 5822 5821 5821 5820 5820 5819 5819 5818 5818 5817 5816 5815 5814 5813 5812 5810 5809 5808 5807 5807 5805 5804 5803
5807 5809 5809 5811 5813 5813 5813 5813 5814 5815 5816 5816 5816 5816 5815 5814 5814 5813 5813 5812 5812 5813 5812 5812 5811 5810 5810 5810 5809 5809 5808 5807 5806 5806 5805 5803 5802 5801 5800 5799 5799 5797 5796 5795
5800 5801 5802 5803 5804 5805 5805 5806 5807 5807 5808 5808 5807 5807 5806 5805 5804 5804 5803 5803 5803 5803 5802 5802 5801 5801 5801 5800 5800 5800 5799 5798 5797 5797 5796 5795 5794 5793 5792 5791 5790 5789 5788 5787
5793 5795 5795 5796 5797 5797 5798 5799 5799 5800 5800 5799 5799 5798 5797 5797 5795 5794 5793 5792 5792 5792 5792 5792 5792 5792 5791 5790 5790 5790 5789 5788 5788 5787 5786 5786 5785 5784 5783 5782 5781 5780 5779 5778
5786 5788 5789 5790 5790 5790 5791 5791 5792 5791 5791 5791 5791 5790 5789 5788 5787 5786 5785 5784 5784 5783 5783 5782 5782 5782 5781 5780 5780 5779 5779 5778 5777 5777 5776 5776 5776 5774 5773 5773 5772 5771 5771 5769